User: anonymous   Login
Location: Unspecified
(0.0000°N, 0.0000°E)
Time: 08:25:04
(UTC+00:00)
Language:

APRIZESAT 7 - Orbit

View from above orbital plane
View from above orbital plane
View from above satellite
View from above satellite

Ground track
Ground track

The orbit data is extracted from the following two-line orbital elements,

1 39416U 13066A   18267.74151207 +.00000098 +00000-0 +17762-4 0  9994
2 39416 097.5752 300.8756 0041715 163.0975 197.1641 14.83829884262080
Epoch (UTC): 24 September 2018 17:47:46
Eccentricity: 0.0041715
inclination: 97.5752°
perigee height: 588 km
apogee height: 646 km
right ascension of ascending node: 300.8756°
argument of perigee: 163.0975°
revolutions per day: 14.83829884
mean anomaly at epoch: 197.1641°
orbit number at epoch: 26208

The dashed part of the orbit path shows where the satellite is in the earth's shadow,  

DLR